COSMOS 2460 (732)

Last updated on Fri Sep 18 2026 00:03:21 GMT+0000 (Coordinated Universal Time)

1 36402U 10007C 26260.14752612 -.00000047 00000+0 00000+0 0 9997 2 36402 65.3621 311.3508 0002511 218.2925 155.7385 2.13101742128690
UTC large
Height (km)
Speed (km/s)
/
Latitude / Longitude
Inclination (degrees)
Orbital Period (minutes)
Azimuth
Elevation
Range (km)
Doppler Factor

Next 0 passes for location: London (51.5072 / 0.1276)

No passes found over London.
COSMOS 2460 (732)